QPF
0.00 0.00 0.01 0.11 0.09 0.14 0.14 0.10 0.03 0.02 0.00 0.00 0.01 0.01 0.01 0.02 0.10 0.07 0.00 0.00 0.00 0.00 0.00 0.00 0.02 0.02 0.02 0.01 0.00 0.01 0.01 0.02 0.01 0.00 0.00 0.00 0.00 0.01 0.00 0.01 0.02 0.01 0.00 0.00 0.01 0.01 0.01 0.00 0.00
0.00 0.00 0.09 0.14 0.15 0.12 0.11 0.03 0.03 0.03 0.00 0.00 0.00 0.02 0.01 0.00 0.00 0.00 0.00 0.00 0.00 0.00 0.00 0.00 0.02 0.02 0.00 0.01 0.00 0.00 0.00 0.00 0.00 0.00 0.06 0.04 0.02 0.00 0.00 0.03 0.01 0.00 0.00 0.00 0.00 0.00 0.01 0.00 0.00
0.00 0.05 0.17 0.16 0.15 0.06 0.10 0.02 0.01 0.00 0.00 0.00 0.00 0.00 0.02 0.00 0.00 0.00 0.00 0.00 0.00 0.00 0.00 0.00 0.00 0.01 0.01 0.03 0.00 0.01 0.01 0.01 0.01 0.03 0.05 0.04 0.04 0.00 0.01 0.04 0.01 0.00 0.00 0.02 0.03 0.00 0.01 0.00 0.00
0.01 0.13 0.19 0.17 0.17 0.07 0.07 0.03 0.00 0.00 0.00 0.00 0.00 0.00 0.00 0.00 0.00 0.00 0.00 0.00 0.00 0.00 0.00 0.00 0.00 0.01 0.01 0.00 0.00 0.00 0.00 0.00 0.01 0.01 0.03 0.02 0.00 0.00 0.00 0.01 0.01 0.00 0.00 0.01 0.00 0.04 0.00 0.00 0.00
0.01 0.10 0.19 0.28 0.13 0.09 0.02 0.02 0.01 0.01 0.01 0.00 0.01 0.00 0.00 0.00 0.00 0.00 0.00 0.00 0.00 0.00 0.00 0.00 0.01 0.02 0.02 0.00 0.00 0.00 0.00 0.01 0.00 0.00 0.00 0.01 0.00 0.00 0.00 0.00 0.00 0.00 0.00 0.00 0.00 0.00 0.00 0.00 0.00
0.01 0.04 0.19 0.17 0.08 0.06 0.02 0.01 0.00 0.02 0.01 0.01 0.01 0.00 0.00 0.00 0.00 0.00 0.00 0.00 0.00 0.00 0.00 0.00 0.00 0.01 0.01 0.00 0.00 0.00 0.01 0.01 0.01 0.00 0.01 0.01 0.00 0.00 0.00 0.00 0.00 0.00 0.00 0.00 0.00 0.00 0.00 0.00 0.00
0.00 0.06 0.07 0.05 0.05 0.05 0.01 0.02 0.03 0.06 0.02 0.01 0.00 0.00 0.00 0.00 0.00 0.00 0.00 0.00 0.00 0.00 0.00 0.00 0.00 0.00 0.00 0.00 0.00 0.01 0.01 0.00 0.01 0.00 0.00 0.00 0.00 0.00 0.00 0.00 0.00 0.00 0.00 0.00 0.00 0.00 0.00 0.00 0.00
0.00 0.00 0.00 0.02 0.02 0.06 0.06 0.01 0.02 0.03 0.01 0.00 0.00 0.01 0.00 0.00 0.00 0.00 0.00 0.00 0.00 0.00 0.00 0.00 0.00 0.00 0.00 0.00 0.00 0.01 0.00 0.01 0.00 0.00 0.00 0.00 0.00 0.00 0.00 0.00 0.00 0.00 0.00 0.00 0.00 0.00 0.00 0.00 0.00
0.00 0.00 0.04 0.01 0.04 0.04 0.09 0.03 0.01 0.01 0.00 0.00 0.00 0.01 0.00 0.00 0.00 0.00 0.00 0.00 0.00 0.00 0.00 0.00 0.00 0.00 0.00 0.00 0.00 0.01 0.00 0.01 0.00 0.00 0.01 0.04 0.03 0.00 0.00 0.00 0.00 0.00 0.00 0.00 0.00 0.00 0.00 0.00 0.00
0.00 0.02 0.03 0.04 0.03 0.04 0.07 0.07 0.06 0.00 0.00 0.00 0.00 0.00 0.00 0.00 0.00 0.00 0.00 0.00 0.00 0.00 0.00 0.00 0.00 0.00 0.00 0.00 0.00 0.00 0.00 0.00 0.00 0.01 0.06 0.06 0.09 0.01 0.00 0.00 0.00 0.00 0.00 0.00 0.00 0.04 0.07 0.09 0.09
0.00 0.01 0.01 0.03 0.02 0.03 0.10 0.03 0.02 0.01 0.01 0.00 0.00 0.00 0.00 0.00 0.00 0.00 0.00 0.00 0.00 0.00 0.00 0.00 0.00 0.00 0.00 0.00 0.00 0.00 0.00 0.00 0.00 0.02 0.05 0.03 0.01 0.01 0.00 0.00 0.00 0.00 0.00 0.00 0.01 0.02 0.05 0.05 0.06
0.00 0.00 0.00 0.01 0.01 0.00 0.02 0.03 0.04 0.04 0.05 0.03 0.00 0.00 0.00 0.00 0.00 0.00 0.00 0.00 0.00 0.00 0.00 0.00 0.01 0.00 0.00 0.00 0.00 0.00 0.00 0.00 0.00 0.00 0.00 0.00 0.01 0.04 0.04 0.01 0.03 0.06 0.07 0.04 0.10 0.12 0.04 0.03 0.02
0.00 0.00 0.00 0.00 0.01 0.00 0.00 0.03 0.04 0.03 0.03 0.01 0.00 0.00 0.00 0.00 0.00 0.00 0.00 0.00 0.00 0.00 0.00 0.00 0.00 0.00 0.00 0.00 0.00 0.00 0.00 0.00 0.00 0.00 0.00 0.05 0.01 0.02 0.02 0.01 0.10 0.06 0.07 0.10 0.04 0.07 0.03 0.02 0.01
0.00 0.00 0.00 0.00 0.00 0.00 0.00 0.01 0.01 0.01 0.00 0.00 0.00 0.00 0.00 0.00 0.00 0.00 0.00 0.00 0.00 0.00 0.00 0.00 0.00 0.00 0.00 0.00 0.00 0.00 0.00 0.01 0.00 0.00 0.00 0.04 0.02 0.00 0.01 0.01 0.04 0.11 0.07 0.09 0.04 0.01 0.00 0.02 0.00
0.00 0.00 0.00 0.00 0.00 0.00 0.00 0.03 0.01 0.00 0.00 0.00 0.00 0.00 0.00 0.00 0.00 0.00 0.00 0.00 0.00 0.00 0.00 0.00 0.00 0.00 0.00 0.00 0.00 0.00 0.00 0.02 0.01 0.00 0.00 0.02 0.03 0.00 0.01 0.02 0.02 0.04 0.04 0.07 0.03 0.00 0.01 0.03 0.00
0.00 0.00 0.00 0.00 0.00 0.00 0.00 0.01 0.04 0.01 0.01 0.00 0.00 0.00 0.00 0.00 0.00 0.00 0.00 0.00 0.00 0.00 0.00 0.00 0.00 0.00 0.00 0.00 0.00 0.00 0.00 0.00 0.00 0.00 0.00 0.00 0.00 0.01 0.05 0.01 0.00 0.01 0.01 0.01 0.04 0.06 0.00 0.01 0.00
0.00 0.00 0.00 0.00 0.00 0.00 0.00 0.00 0.02 0.13 0.08 0.01 0.00 0.00 0.00 0.00 0.00 0.00 0.00 0.00 0.00 0.00 0.00 0.00 0.00 0.00 0.00 0.00 0.00 0.00 0.00 0.00 0.00 0.00 0.00 0.00 0.00 0.02 0.12 0.04 0.01 0.00 0.00 0.00 0.04 0.04 0.00 0.00 0.00
0.00 0.00 0.00 0.00 0.00 0.00 0.00 0.00 0.01 0.03 0.15 0.07 0.00 0.00 0.00 0.00 0.00 0.00 0.00 0.00 0.00 0.00 0.00 0.00 0.00 0.00 0.00 0.00 0.00 0.00 0.00 0.00 0.00 0.00 0.00 0.00 0.00 0.02 0.07 0.04 0.03 0.00 0.01 0.00 0.00 0.01 0.00 0.00 0.00
0.00 0.00 0.00 0.00 0.00 0.00 0.00 0.00 0.00 0.04 0.10 0.08 0.00 0.00 0.00 0.00 0.00 0.00 0.00 0.00 0.00 0.00 0.00 0.00 0.00 0.00 0.00 0.00 0.00 0.00 0.00 0.00 0.00 0.00 0.00 0.00 0.00 0.01 0.04 0.05 0.02 0.01 0.02 0.00 0.01 0.00 0.00 0.00 0.00
0.00 0.00 0.00 0.00 0.00 0.00 0.00 0.00 0.00 0.01 0.05 0.04 0.01 0.00 0.00 0.00 0.00 0.00 0.00 0.00 0.00 0.00 0.00 0.00 0.00 0.00 0.00 0.00 0.00 0.00 0.00 0.00 0.00 0.00 0.00 0.00 0.00 0.00 0.01 0.04 0.02 0.01 0.01 0.00 0.00 0.04 0.00 0.00 0.00
0.00 0.00 0.00 0.00 0.00 0.00 0.00 0.00 0.00 0.01 0.02 0.05 0.01 0.00 0.00 0.00 0.00 0.00 0.00 0.00 0.00 0.00 0.00 0.00 0.00 0.00 0.00 0.00 0.00 0.00 0.00 0.00 0.00 0.00 0.00 0.00 0.00 0.00 0.04 0.01 0.01 0.01 0.01 0.01 0.01 0.01 0.02 0.01 0.00
0.00 0.00 0.00 0.00 0.00 0.00 0.00 0.00 0.00 0.00 0.00 0.03 0.02 0.00 0.00 0.00 0.00 0.00 0.00 0.00 0.00 0.00 0.00 0.00 0.00 0.00 0.00 0.00 0.00 0.00 0.00 0.00 0.00 0.00 0.00 0.00 0.00 0.00 0.00 0.00 0.00 0.00 0.02 0.02 0.01 0.01 0.01 0.00 0.00
0.00 0.00 0.00 0.00 0.00 0.00 0.00 0.00 0.00 0.00 0.00 0.01 0.03 0.01 0.00 0.00 0.00 0.00 0.00 0.00 0.00 0.00 0.00 0.00 0.00 0.00 0.00 0.00 0.00 0.00 0.00 0.00 0.00 0.00 0.00 0.00 0.00 0.00 0.00 0.00 0.00 0.00 0.01 0.02 0.01 0.00 0.00 0.00 0.00
0.00 0.00 0.00 0.00 0.00 0.00 0.00 0.00 0.00 0.00 0.00 0.00 0.01 0.02 0.00 0.00 0.00 0.00 0.00 0.00 0.00 0.00 0.00 0.00 0.00 0.00 0.00 0.00 0.00 0.00 0.00 0.00 0.00 0.00 0.00 0.00 0.00 0.00 0.00 0.00 0.02 0.02 0.04 0.02 0.01 0.00 0.00 0.00 0.01
0.00 0.00 0.00 0.00 0.00 0.00 0.00 0.00 0.00 0.00 0.00 0.00 0.01 0.01 0.00 0.00 0.00 0.00 0.00 0.00 0.00 0.00 0.00 0.00 0.00 0.00 0.00 0.00 0.00 0.00 0.00 0.00 0.00 0.01 0.00 0.00 0.00 0.00 0.00 0.00 0.01 0.01 0.02 0.04 0.03 0.01 0.00 0.00 0.00
0.00 0.00 0.00 0.00 0.00 0.00 0.00 0.00 0.00 0.00 0.00 0.00 0.00 0.00 0.00 0.00 0.00 0.00 0.00 0.00 0.00 0.00 0.00 0.00 0.00 0.00 0.00 0.00 0.00 0.00 0.00 0.00 0.00 0.00 0.00 0.00 0.00 0.00 0.00 0.00 0.00 0.01 0.02 0.01 0.02 0.01 0.00 0.00 0.00
0.00 0.00 0.00 0.00 0.00 0.00 0.00 0.00 0.00 0.00 0.00 0.00 0.00 0.00 0.00 0.00 0.00 0.00 0.00 0.00 0.00 0.00 0.00 0.00 0.00 0.00 0.00 0.00 0.00 0.00 0.00 0.00 0.00 0.00 0.00 0.00 0.00 0.00 0.00 0.00 0.00 0.00 0.00 0.01 0.02 0.01 0.04 0.02 0.01
0.00 0.00 0.00 0.00 0.00 0.00 0.00 0.00 0.00 0.00 0.00 0.00 0.00 0.00 0.00 0.00 0.00 0.00 0.00 0.00 0.00 0.00 0.00 0.00 0.00 0.00 0.00 0.00 0.00 0.00 0.00 0.00 0.00 0.00 0.00 0.00 0.00 0.00 0.00 0.00 0.00 0.00 0.00 0.00 0.00 0.00 0.01 0.02 0.01
0.00 0.00 0.00 0.00 0.00 0.00 0.00 0.00 0.00 0.00 0.00 0.00 0.00 0.00 0.00 0.00 0.00 0.00 0.00 0.00 0.00 0.00 0.00 0.00 0.00 0.00 0.00 0.00 0.00 0.00 0.00 0.00 0.00 0.00 0.00 0.00 0.00 0.00 0.00 0.00 0.00 0.00 0.00 0.00 0.00 0.00 0.01 0.01 0.00
0.00 0.00 0.00 0.00 0.00 0.00 0.00 0.00 0.00 0.00 0.00 0.00 0.00 0.00 0.00 0.00 0.00 0.00 0.01 0.00 0.00 0.00 0.00 0.00 0.00 0.00 0.00 0.00 0.00 0.00 0.00 0.00 0.00 0.00 0.00 0.00 0.00 0.00 0.00 0.00 0.00 0.00 0.00 0.00 0.00 0.00 0.00 0.01 0.00
MSLP
1009.67 1009.69 1009.70 1010.16 1010.22 1008.79 1005.99 1005.56 1002.91 1002.36 1002.05 1002.16 1002.90 1004.22 1005.62 1006.41 1006.82 1009.22 1010.63 1011.17 1012.17 1013.22 1014.17 1014.75 1015.18 1015.46 1015.74 1015.97 1016.04 1016.27 1016.39 1016.71 1016.68 1016.84 1016.94 1017.05 1017.21 1017.24 1017.30 1017.41 1017.48 1017.46 1017.51 1017.56 1017.66 1017.75 1017.78 1017.86 1017.96
1008.71 1009.11 1009.71 1009.32 1009.25 1007.71 1006.34 1004.64 1002.99 1002.10 1002.06 1002.60 1003.16 1004.54 1005.23 1006.46 1007.55 1009.00 1010.16 1011.25 1012.07 1013.06 1013.88 1014.76 1015.35 1015.56 1015.83 1016.04 1016.23 1016.46 1016.64 1016.72 1016.88 1017.04 1017.14 1017.17 1017.43 1017.50 1017.58 1017.64 1017.70 1017.66 1017.74 1017.81 1017.84 1017.97 1017.97 1018.13 1018.21
1008.82 1008.69 1009.24 1008.43 1007.44 1007.94 1005.80 1003.81 1001.98 1001.50 1001.58 1002.57 1003.72 1004.72 1005.76 1007.34 1008.54 1009.09 1010.28 1011.24 1011.82 1012.77 1013.64 1015.00 1015.39 1015.61 1015.91 1016.13 1016.32 1016.58 1016.68 1016.86 1016.99 1017.25 1017.40 1017.50 1017.52 1017.66 1017.74 1017.81 1017.86 1017.86 1017.94 1018.03 1018.17 1018.22 1018.29 1018.38 1018.41
1008.62 1009.12 1008.64 1007.49 1007.07 1007.35 1005.24 1003.44 1002.27 1001.94 1002.48 1003.07 1004.20 1005.68 1007.22 1008.20 1008.51 1009.60 1010.32 1010.95 1011.57 1012.86 1014.07 1015.22 1015.46 1015.75 1015.99 1016.21 1016.49 1016.68 1016.84 1017.04 1017.20 1017.38 1017.44 1017.64 1017.69 1017.78 1017.87 1018.03 1018.09 1018.17 1018.26 1018.32 1018.41 1018.54 1018.58 1018.64 1018.64
1008.19 1008.37 1007.48 1006.35 1006.75 1005.98 1004.65 1002.28 1002.09 1001.97 1002.92 1003.65 1004.56 1006.51 1007.83 1008.63 1009.24 1009.84 1010.16 1010.40 1011.29 1012.92 1014.44 1015.23 1015.63 1015.85 1016.16 1016.43 1016.62 1016.83 1017.01 1017.17 1017.27 1017.40 1017.51 1017.58 1017.84 1017.94 1018.14 1018.24 1018.22 1018.30 1018.42 1018.48 1018.58 1018.63 1018.69 1018.77 1018.76
1007.56 1006.82 1006.16 1006.58 1006.08 1004.77 1002.46 1002.43 1002.19 1002.45 1003.19 1004.45 1005.38 1006.56 1008.11 1008.78 1009.44 1009.54 1009.70 1010.17 1011.32 1012.96 1014.21 1015.30 1015.87 1016.05 1016.34 1016.56 1016.76 1017.01 1017.16 1017.26 1017.34 1017.46 1017.63 1017.86 1018.02 1018.20 1018.25 1018.35 1018.40 1018.38 1018.50 1018.59 1018.74 1018.77 1018.86 1018.87 1018.81
1005.66 1005.66 1005.17 1005.74 1005.97 1004.33 1001.76 1001.72 1002.20 1002.61 1002.71 1003.60 1005.25 1006.28 1008.10 1008.95 1009.11 1009.30 1009.45 1009.96 1011.30 1012.68 1014.26 1015.29 1015.84 1016.13 1016.45 1016.75 1016.97 1017.14 1017.28 1017.43 1017.53 1017.67 1017.78 1018.00 1018.20 1018.44 1018.44 1018.53 1018.52 1018.52 1018.58 1018.76 1018.80 1018.83 1018.86 1018.90 1018.86
1004.09 1003.94 1004.18 1004.69 1004.92 1004.71 1003.87 1002.06 1002.51 1002.55 1002.78 1003.56 1004.62 1006.35 1007.57 1008.61 1008.61 1008.84 1009.24 1009.94 1011.18 1012.92 1014.22 1014.98 1015.69 1016.01 1016.36 1016.88 1017.00 1017.26 1017.36 1017.50 1017.64 1017.76 1017.91 1018.08 1018.28 1018.51 1018.56 1018.70 1018.60 1018.72 1018.89 1018.86 1018.99 1019.11 1019.27 1019.35 1019.22
1003.17 1003.39 1003.54 1004.16 1004.66 1005.22 1003.83 1002.49 1002.24 1001.92 1002.65 1003.68 1004.09 1005.58 1006.87 1007.98 1008.24 1008.93 1009.25 1009.98 1011.38 1012.44 1013.60 1014.34 1015.27 1015.84 1016.10 1016.79 1017.12 1017.34 1017.45 1017.52 1017.71 1017.86 1018.06 1018.14 1018.20 1018.44 1018.57 1018.76 1018.60 1018.82 1018.88 1018.99 1019.29 1019.66 1019.84 1019.74 1019.82
1002.69 1002.64 1003.84 1003.57 1004.38 1004.78 1003.43 1003.52 1002.90 1002.73 1002.91 1004.29 1004.22 1005.32 1006.64 1007.52 1008.06 1008.91 1009.17 1009.98 1011.13 1012.14 1012.92 1013.69 1014.24 1015.31 1015.68 1015.96 1016.94 1017.07 1017.22 1017.32 1017.39 1017.61 1018.05 1018.25 1018.32 1018.09 1018.45 1018.66 1018.91 1018.93 1018.88 1018.94 1019.14 1019.62 1020.29 1021.05 1020.68
1002.10 1001.98 1002.22 1002.36 1001.99 1003.91 1001.58 1004.87 1003.90 1002.24 1003.14 1004.24 1004.61 1005.46 1006.31 1007.18 1008.12 1008.79 1009.27 1010.00 1010.80 1011.68 1012.19 1013.13 1014.21 1014.84 1015.03 1015.91 1016.29 1016.31 1016.78 1017.08 1017.08 1017.60 1017.95 1017.90 1017.96 1018.67 1018.36 1018.58 1018.78 1018.72 1019.05 1018.91 1019.09 1019.84 1020.81 1021.46 1021.60
1001.31 1000.84 1000.72 1000.75 1001.43 1001.09 1001.52 1001.66 1003.43 1002.60 1005.11 1004.70 1004.39 1005.26 1006.26 1007.24 1008.10 1008.47 1009.15 1010.04 1010.90 1011.44 1011.97 1013.37 1014.21 1014.54 1015.18 1015.34 1015.35 1015.69 1016.26 1016.61 1016.64 1017.07 1017.29 1017.24 1018.32 1018.83 1018.53 1018.56 1018.61 1019.34 1018.69 1019.25 1019.16 1020.07 1020.67 1021.14 1020.60
1000.51 1000.36 1000.02 999.70 1000.52 1000.32 1000.66 1001.94 1004.28 1004.23 1004.16 1004.64 1004.75 1005.48 1006.30 1007.31 1008.34 1008.47 1009.00 1010.06 1011.14 1011.52 1012.13 1013.38 1014.14 1014.94 1014.92 1014.90 1015.24 1015.39 1015.72 1015.90 1016.39 1016.93 1017.23 1018.12 1018.07 1018.43 1018.35 1018.32 1019.70 1019.19 1019.48 1019.48 1019.42 1019.32 1020.10 1020.21 1020.11
1000.16 999.89 999.63 999.20 999.37 999.74 1000.58 1001.54 1002.80 1004.29 1003.89 1004.83 1005.36 1006.15 1006.63 1007.24 1008.00 1008.16 1008.76 1009.85 1011.09 1011.60 1012.13 1013.20 1014.03 1014.68 1014.89 1015.27 1015.11 1015.57 1015.83 1016.48 1016.74 1016.66 1016.99 1018.41 1017.92 1017.84 1018.17 1018.57 1019.54 1019.37 1018.59 1019.15 1019.28 1019.01 1019.08 1019.37 1019.34
1000.09 999.64 999.24 998.97 999.05 999.46 1000.56 1001.46 1002.65 1003.08 1003.12 1003.52 1005.80 1006.90 1007.38 1007.52 1007.83 1007.96 1008.63 1009.64 1010.80 1011.54 1012.17 1013.32 1014.11 1014.77 1015.23 1015.49 1015.34 1015.32 1015.88 1017.49 1017.22 1016.94 1017.21 1018.19 1018.13 1017.74 1017.88 1018.42 1019.48 1019.25 1019.12 1019.32 1018.90 1019.11 1019.65 1019.58 1019.38
1000.28 999.87 998.89 998.40 998.70 998.78 999.98 1001.13 1003.10 1004.50 1005.28 1004.16 1005.62 1006.50 1007.14 1007.52 1007.63 1008.02 1008.34 1009.37 1010.58 1011.40 1012.21 1013.23 1013.80 1014.84 1015.38 1015.54 1015.50 1015.42 1015.50 1016.45 1016.44 1016.76 1017.13 1017.40 1017.81 1018.24 1018.82 1018.06 1018.18 1018.38 1018.75 1018.68 1019.49 1019.56 1019.60 1019.98 1019.91
1000.02 999.14 998.50 998.00 997.47 998.47 999.14 1001.44 1003.83 1004.99 1006.23 1004.59 1005.56 1005.99 1006.39 1007.19 1007.34 1007.68 1008.01 1009.10 1010.25 1011.24 1012.14 1013.10 1013.71 1014.63 1015.32 1015.66 1015.72 1015.69 1015.35 1016.25 1016.50 1016.81 1016.99 1017.29 1017.88 1018.33 1019.03 1018.90 1018.20 1018.11 1018.60 1018.95 1019.79 1019.52 1019.96 1019.97 1019.99
999.25 998.60 998.01 996.99 997.00 997.54 998.96 1001.08 1004.44 1004.46 1006.04 1006.95 1004.64 1005.60 1005.72 1006.32 1006.88 1007.25 1007.68 1008.72 1009.97 1011.07 1012.06 1013.02 1013.63 1014.41 1015.22 1015.74 1015.92 1015.81 1015.78 1016.20 1016.62 1016.82 1017.12 1017.34 1017.64 1018.34 1018.92 1018.78 1018.33 1018.18 1018.94 1019.17 1019.56 1019.76 1019.87 1019.90 1019.63
999.12 997.94 996.99 996.46 996.17 996.69 997.95 1000.53 1003.52 1004.74 1005.24 1005.61 1004.77 1004.82 1005.13 1005.38 1006.43 1006.81 1007.42 1008.34 1009.58 1010.77 1011.95 1012.89 1013.60 1014.39 1015.11 1015.72 1015.93 1015.93 1016.05 1016.22 1016.55 1016.83 1016.95 1017.15 1017.59 1017.63 1018.38 1018.64 1018.45 1018.34 1018.87 1019.06 1019.33 1019.34 1019.30 1019.52 1019.62
999.45 998.44 997.02 995.78 995.74 996.06 997.22 999.32 1002.76 1003.63 1004.15 1004.85 1005.22 1003.84 1004.36 1004.58 1005.46 1006.27 1007.12 1007.86 1009.05 1010.36 1011.60 1012.80 1013.48 1014.37 1014.89 1015.54 1015.80 1015.80 1015.90 1016.08 1016.08 1016.55 1016.70 1016.90 1017.19 1017.53 1018.19 1018.43 1018.46 1018.14 1018.70 1019.06 1019.23 1019.27 1019.73 1019.59 1019.26
999.20 998.67 997.59 996.51 995.76 995.72 996.40 998.50 1002.26 1003.59 1003.71 1005.30 1005.06 1002.64 1003.49 1003.68 1004.34 1005.46 1006.52 1007.34 1008.46 1009.79 1011.14 1012.30 1013.20 1014.06 1014.70 1015.30 1015.77 1015.81 1015.87 1015.96 1016.14 1016.28 1016.55 1016.72 1017.04 1017.29 1018.08 1018.22 1018.22 1018.24 1018.55 1019.05 1019.36 1019.43 1019.65 1019.77 1019.58
998.90 998.57 998.26 997.44 996.87 996.05 996.36 997.44 999.07 1001.04 1001.51 1003.62 1002.21 1001.49 1002.39 1002.92 1003.82 1004.70 1005.88 1006.84 1007.78 1009.05 1010.53 1011.79 1012.82 1013.65 1014.40 1015.01 1015.39 1015.52 1015.55 1015.76 1015.80 1016.10 1016.28 1016.59 1016.78 1017.05 1017.42 1017.83 1018.14 1018.17 1018.51 1018.85 1018.95 1019.12 1019.29 1019.49 1019.44
998.99 998.81 998.29 998.27 997.82 997.23 996.38 996.66 996.92 997.89 999.99 1001.36 1002.88 1001.87 1000.99 1001.92 1002.77 1003.61 1004.67 1005.88 1006.93 1008.38 1009.70 1011.12 1012.35 1013.26 1014.00 1014.62 1014.93 1015.27 1015.44 1015.27 1015.28 1015.64 1015.97 1016.40 1016.74 1016.82 1017.18 1017.51 1017.94 1018.24 1018.43 1018.62 1018.77 1018.79 1019.03 1019.33 1019.31
999.39 999.30 999.05 998.73 998.36 997.33 996.74 996.11 995.51 996.22 998.44 1000.76 1001.63 1002.10 999.89 1000.60 1001.84 1002.66 1003.90 1005.35 1006.44 1007.65 1009.06 1010.35 1011.72 1012.68 1013.52 1014.26 1014.75 1014.94 1015.11 1015.08 1015.16 1015.35 1015.74 1016.13 1016.64 1016.91 1016.90 1017.28 1017.74 1018.09 1018.42 1018.66 1018.74 1018.80 1019.09 1019.23 1019.38
999.38 999.42 999.32 999.12 998.06 996.60 996.78 995.86 995.00 994.76 995.80 997.80 998.64 999.04 999.10 999.02 1000.38 1001.64 1002.75 1004.08 1005.43 1006.52 1007.77 1009.09 1010.65 1011.85 1012.81 1013.67 1014.14 1014.54 1014.80 1014.96 1015.08 1015.10 1015.50 1015.87 1016.17 1016.55 1016.81 1017.04 1017.80 1018.15 1018.25 1018.34 1018.50 1018.82 1019.06 1019.19 1019.26
999.04 999.46 999.14 998.44 997.41 996.62 996.35 994.60 994.07 994.79 994.28 995.60 996.62 998.63 998.82 998.81 998.48 999.86 1001.37 1002.77 1004.13 1005.35 1006.64 1007.94 1009.38 1010.74 1011.86 1012.73 1013.52 1014.10 1014.36 1014.59 1014.86 1014.89 1014.90 1015.28 1015.60 1015.68 1016.17 1016.59 1017.08 1017.51 1017.95 1018.08 1018.40 1018.83 1019.07 1019.18 1019.25
999.31 998.78 999.36 998.88 997.69 996.48 995.14 994.46 994.00 993.70 993.54 993.97 995.54 996.63 998.34 999.75 997.68 998.93 999.52 1001.37 1002.95 1004.34 1005.61 1006.82 1008.31 1009.74 1010.79 1011.65 1012.74 1013.45 1013.79 1014.17 1014.38 1014.57 1014.74 1014.98 1015.06 1015.16 1015.63 1016.09 1016.74 1017.15 1017.60 1017.94 1018.27 1018.78 1018.94 1019.06 1019.20
999.54 999.48 998.94 998.89 997.92 996.24 994.93 993.60 992.23 992.56 992.64 992.98 993.52 995.03 996.48 997.15 997.85 997.96 999.19 1000.05 1001.60 1003.08 1004.48 1006.11 1007.46 1008.76 1009.91 1011.12 1011.93 1012.68 1013.18 1013.59 1014.03 1014.39 1014.58 1014.80 1014.93 1014.97 1015.80 1015.93 1016.35 1016.76 1017.12 1017.44 1018.08 1018.47 1018.74 1019.04 1019.13
1000.02 999.72 999.02 998.78 998.34 997.08 995.44 993.29 991.62 991.00 991.36 991.91 992.71 993.56 995.42 996.70 998.98 996.87 997.79 999.57 1000.93 1002.15 1003.53 1004.90 1006.34 1007.80 1008.94 1009.91 1010.90 1011.79 1012.57 1013.09 1013.59 1013.85 1014.36 1014.47 1014.81 1014.96 1015.26 1015.70 1016.01 1016.53 1016.96 1017.28 1017.68 1017.98 1018.23 1018.63 1018.71
1000.41 999.95 999.64 998.89 998.74 997.69 995.99 993.55 991.66 991.12 990.33 991.34 992.15 992.91 993.74 996.12 997.64 997.07 998.86 998.52 999.94 1001.28 1002.62 1003.64 1005.01 1006.21 1007.53 1008.68 1009.83 1010.71 1011.55 1012.43 1012.89 1013.28 1013.54 1014.06 1014.37 1014.72 1014.96 1015.38 1015.81 1016.20 1016.60 1016.98 1017.30 1017.63 1017.74 1018.00 1018.23
Thickness
5796 5798 5798 5784 5762 5772 5758 5781 5827 5818 5821 5838 5837 5819 5803 5806 5795 5767 5795 5795 5789 5779 5771 5767 5764 5762 5761 5760 5760 5758 5758 5756 5755 5754 5753 5752 5750 5750 5749 5747 5746 5746 5746 5747 5747 5747 5747 5746 5746
5806 5804 5793 5784 5762 5738 5757 5800 5808 5819 5832 5837 5835 5820 5812 5795 5809 5799 5793 5795 5790 5781 5775 5769 5765 5763 5762 5762 5760 5758 5757 5757 5755 5754 5753 5752 5750 5749 5747 5746 5745 5745 5746 5747 5747 5747 5747 5746 5745
5808 5808 5782 5780 5783 5755 5765 5811 5828 5837 5845 5834 5822 5825 5813 5795 5803 5801 5802 5798 5792 5785 5779 5768 5766 5765 5763 5762 5760 5758 5758 5757 5756 5754 5752 5752 5751 5750 5748 5747 5746 5746 5745 5746 5746 5746 5746 5746 5746
5803 5793 5792 5780 5769 5761 5785 5811 5832 5831 5833 5836 5823 5800 5808 5812 5807 5804 5806 5802 5797 5787 5777 5768 5766 5765 5764 5762 5761 5759 5759 5757 5756 5755 5754 5753 5752 5751 5749 5748 5746 5745 5745 5746 5746 5745 5745 5745 5746
5805 5790 5780 5788 5759 5770 5803 5839 5839 5830 5824 5823 5821 5794 5792 5807 5813 5809 5807 5808 5799 5788 5775 5770 5767 5766 5764 5762 5762 5760 5759 5758 5758 5757 5757 5756 5753 5753 5751 5750 5749 5748 5748 5749 5748 5747 5747 5747 5747
5785 5801 5786 5766 5772 5797 5837 5840 5839 5832 5828 5816 5808 5801 5794 5812 5808 5810 5813 5810 5801 5788 5778 5770 5767 5766 5765 5763 5762 5761 5760 5759 5760 5760 5759 5756 5755 5754 5754 5753 5752 5753 5752 5752 5750 5748 5747 5747 5749
5797 5793 5790 5776 5775 5799 5837 5850 5833 5830 5832 5824 5822 5800 5801 5803 5814 5815 5815 5814 5803 5791 5779 5772 5769 5768 5766 5764 5762 5761 5761 5760 5760 5760 5760 5758 5757 5755 5756 5755 5755 5755 5754 5752 5753 5752 5752 5750 5750
5819 5817 5800 5798 5793 5786 5804 5842 5840 5835 5828 5847 5836 5795 5793 5807 5820 5820 5819 5814 5805 5792 5780 5776 5771 5770 5768 5764 5763 5762 5762 5762 5762 5763 5762 5761 5760 5758 5758 5755 5757 5755 5751 5752 5751 5752 5750 5747 5747
5838 5801 5796 5795 5792 5778 5812 5831 5844 5853 5838 5837 5841 5825 5824 5822 5825 5815 5812 5810 5801 5795 5787 5781 5776 5773 5771 5766 5765 5764 5764 5765 5764 5764 5763 5763 5762 5759 5757 5756 5759 5755 5754 5752 5749 5748 5745 5747 5744
5818 5803 5788 5816 5809 5794 5822 5807 5810 5835 5830 5821 5831 5834 5830 5825 5820 5809 5807 5802 5798 5793 5791 5789 5785 5778 5775 5773 5768 5768 5768 5770 5769 5768 5765 5763 5762 5763 5757 5759 5755 5755 5756 5755 5757 5750 5741 5733 5740
5822 5806 5815 5824 5833 5813 5791 5798 5818 5837 5825 5826 5819 5822 5826 5822 5816 5810 5809 5806 5802 5800 5800 5795 5787 5782 5782 5776 5775 5776 5774 5774 5775 5770 5774 5768 5768 5760 5764 5762 5757 5761 5754 5754 5759 5753 5736 5728 5729
5813 5834 5838 5843 5840 5849 5837 5848 5803 5834 5809 5826 5839 5830 5826 5816 5812 5813 5810 5806 5803 5803 5803 5793 5788 5786 5783 5782 5783 5783 5781 5779 5780 5776 5773 5776 5765 5763 5767 5765 5757 5754 5759 5735 5746 5754 5740 5736 5740
5821 5831 5845 5853 5844 5851 5853 5828 5800 5800 5826 5833 5839 5829 5823 5817 5810 5816 5816 5811 5804 5802 5801 5794 5790 5786 5786 5787 5786 5787 5786 5786 5783 5779 5777 5776 5773 5772 5771 5766 5752 5759 5760 5758 5757 5759 5752 5751 5753
5831 5835 5841 5852 5852 5855 5843 5837 5829 5813 5838 5830 5828 5820 5820 5816 5813 5817 5815 5809 5802 5804 5803 5798 5792 5788 5788 5787 5789 5788 5787 5784 5783 5783 5782 5769 5774 5776 5770 5763 5755 5763 5768 5766 5758 5759 5762 5760 5759
5830 5818 5834 5842 5848 5846 5849 5829 5823 5835 5833 5835 5818 5811 5811 5813 5816 5816 5816 5811 5807 5805 5804 5797 5793 5789 5788 5788 5790 5791 5790 5772 5781 5784 5782 5767 5775 5778 5778 5770 5763 5765 5766 5764 5765 5763 5758 5760 5761
5807 5814 5802 5837 5845 5854 5845 5813 5819 5822 5783 5825 5816 5810 5809 5810 5815 5818 5821 5816 5811 5808 5803 5799 5799 5792 5789 5790 5791 5793 5792 5787 5789 5786 5785 5783 5779 5773 5772 5777 5776 5773 5769 5768 5762 5763 5764 5761 5761
5801 5787 5802 5819 5854 5844 5843 5815 5813 5801 5803 5821 5812 5812 5812 5809 5816 5820 5824 5819 5813 5809 5804 5799 5800 5794 5791 5790 5791 5793 5795 5790 5790 5788 5786 5785 5778 5779 5772 5775 5778 5778 5774 5771 5764 5767 5764 5765 5766
5784 5793 5808 5816 5841 5844 5832 5818 5798 5810 5791 5777 5823 5814 5815 5813 5814 5822 5824 5822 5816 5811 5806 5801 5800 5797 5794 5792 5792 5795 5796 5792 5792 5790 5789 5787 5785 5778 5776 5778 5782 5783 5777 5775 5773 5770 5770 5769 5770
5801 5807 5812 5830 5852 5843 5836 5819 5801 5804 5806 5789 5817 5818 5816 5819 5820 5826 5825 5823 5817 5811 5804 5801 5798 5796 5794 5790 5789 5792 5792 5795 5795 5792 5790 5790 5789 5788 5784 5782 5784 5784 5779 5780 5778 5778 5778 5774 5774
5792 5791 5805 5838 5850 5848 5843 5828 5798 5805 5806 5808 5800 5825 5821 5824 5823 5824 5823 5823 5817 5810 5805 5800 5798 5795 5795 5793 5793 5796 5798 5798 5799 5795 5794 5793 5793 5791 5788 5787 5787 5787 5783 5783 5782 5779 5773 5776 5780
5786 5783 5798 5811 5839 5852 5848 5827 5783 5791 5804 5794 5794 5839 5831 5830 5827 5826 5823 5823 5819 5812 5806 5801 5799 5796 5795 5795 5795 5797 5799 5800 5797 5798 5797 5797 5795 5794 5791 5791 5791 5789 5787 5784 5782 5781 5778 5772 5778
5768 5800 5801 5804 5803 5793 5840 5790 5814 5804 5813 5783 5817 5841 5834 5834 5834 5832 5826 5823 5821 5816 5811 5804 5801 5797 5796 5796 5795 5796 5795 5794 5800 5800 5802 5800 5799 5799 5797 5795 5793 5793 5790 5787 5787 5786 5784 5782 5778
5773 5795 5795 5794 5788 5794 5808 5799 5820 5838 5811 5804 5781 5825 5843 5840 5840 5837 5833 5829 5827 5822 5815 5807 5801 5798 5798 5797 5798 5798 5797 5804 5807 5806 5805 5804 5802 5802 5801 5799 5796 5794 5793 5793 5790 5790 5789 5786 5784
5784 5776 5778 5784 5780 5755 5791 5799 5810 5825 5813 5803 5797 5802 5847 5847 5843 5844 5840 5834 5829 5827 5819 5813 5803 5800 5799 5797 5798 5799 5800 5804 5806 5807 5805 5805 5804 5804 5804 5802 5799 5797 5795 5794 5792 5793 5790 5790 5789
5765 5752 5726 5726 5739 5749 5797 5791 5810 5847 5845 5830 5830 5840 5848 5859 5851 5846 5841 5837 5832 5828 5825 5820 5809 5803 5802 5799 5800 5801 5802 5805 5806 5808 5807 5806 5806 5806 5806 5804 5800 5798 5797 5796 5794 5793 5792 5792 5791
5749 5745 5727 5707 5733 5758 5792 5780 5810 5849 5867 5859 5848 5840 5847 5850 5864 5858 5852 5845 5839 5835 5830 5825 5816 5808 5807 5804 5802 5802 5804 5807 5808 5811 5814 5813 5812 5814 5813 5809 5806 5802 5799 5798 5796 5795 5794 5794 5793
5736 5733 5761 5742 5769 5761 5788 5802 5831 5846 5856 5863 5849 5836 5826 5813 5860 5859 5865 5856 5847 5840 5836 5830 5821 5813 5810 5808 5805 5804 5806 5807 5809 5812 5815 5815 5818 5820 5816 5813 5811 5806 5802 5799 5798 5795 5795 5796 5795
5729 5752 5732 5738 5712 5724 5768 5789 5805 5825 5839 5855 5860 5852 5835 5821 5830 5858 5859 5861 5856 5850 5843 5834 5828 5817 5812 5807 5806 5806 5807 5809 5810 5811 5813 5814 5817 5819 5813 5814 5813 5810 5806 5803 5800 5799 5798 5796 5797
5713 5715 5732 5740 5745 5725 5735 5776 5847 5846 5850 5851 5861 5870 5847 5850 5813 5859 5865 5858 5855 5851 5846 5839 5832 5822 5816 5815 5812 5810 5809 5810 5811 5813 5812 5815 5816 5818 5817 5815 5814 5811 5808 5807 5805 5803 5803 5799 5799
5714 5713 5723 5713 5711 5730 5754 5777 5847 5855 5864 5857 5855 5866 5874 5839 5845 5843 5842 5858 5856 5850 5846 5844 5837 5832 5825 5820 5815 5813 5812 5810 5811 5814 5817 5817 5816 5817 5817 5816 5814 5813 5811 5810 5807 5805 5806 5804 5801